Погода в Большом Шелепино

Россия / Тульская область     54°28′52″N   37°09′36″E
темп.,
°C
ветер,
м/с
пор.,
м/с
влажн.,
%
обл.,
%
осадки,
мм/ч
давл.,
гПа
погр.,
м
21 апреля, ср
ср2100:00+1всв5997100 0.1 1010427
03:00+1ссв46100100 1.6 1007251
06:00+1сз23100100 0.4 1005143
09:00+2з3599100 0.5 1005347
12:00+3зюз4791100 0.1 1007720
15:00+4зюз5787100 0.1 1009977
18:00+4юз3787100 0.0 1011399
21:00+4ююз3690100 0.1 1012170
22 апреля, чт
чт2200:00+4ююз3791100 0.0 1013200
03:00+2ююз4109418 0.0 1014229
06:00+3ююз41096100 0.1 1015356
09:00+6ююз5128798 0.6 1016759
12:00+10ююз687395 0.0 10161068
15:00+11ю6870100 0.1 10161252
18:00+11ю6107880 0.0 1016599
21:00+8ю51387100 0.0 1016290
23 апреля, пт
пт2300:00+8ю5138811 0.0 1016343
03:00+7ю51487100 0.0 1015319
06:00+7ю61483100 0.0 1015387
09:00+11ю71473100 0.1 1015769
12:00+15ююз9135627 0.3 10142079
15:00+14ю71161100 1.1 10131475
18:00+13ю6116269 1.1 1012618
21:00+8с239663 2.1 101268
24 апреля, сб
сб2400:00+9ююв41187100 0.3 1010381
03:00+8ююв61490100 0.7 1008935
06:00+8ю51191100 0.3 10061042
09:00+3сз5597100 2.3 1006266
12:00+1зсз614100100 6.3 1007512
15:00+5зсз71180100 7.6 10081316
18:00+6з587026 0.3 1007564
21:00+3зюз4108284 0.5 1009252
25 апреля, вс
вс2500:00+1зюз512885 0.0 1009345
03:000юз6129249 0.0 1009383
06:000зюз5119399 0.0 1009505
09:00+2зюз71084100 0.0 1010837
12:00+6зюз81162100 0.1 10101912
15:00+7зюз8125286 0.3 10102284
18:00+6зюз6106034 0.3 10101141
21:00+2юз41080100 0.3 1011255